Location: ?????????
(48.6997°N, 34.2533°E)
Time: 14:02:42
(UTC+00:00)

Daily predictions for brighter satellites

Satellite Brightness Start Highest point End
(mag) Time Altitude Azimuth Time Altitude Azimuth Time Altitude Azimuth
STARLINK-1084 4.1 16:34:55 10° WNW 16:38:59 52° NNE 16:43:03 10° E
STARLINK-1237 4.0 16:35:27 10° SW 16:39:18 43° SE 16:43:09 10° ENE
STARLINK-1083 3.7 16:35:25 10° WNW 16:39:30 79° SSW 16:43:34 10° ESE
KORONAS-FOTON 3.9 16:38:00 10° N 16:41:52 84° W 16:45:39 10° S
Cosmos 1980 3.8 16:36:13 10° SSW 16:41:55 89° WNW 16:47:39 10° NNE
Cosmos 1939 Rocket 4.1 16:38:12 10° S 16:42:02 46° W 16:45:50 10° NNW
STARLINK-1098 4.1 16:39:55 10° WNW 16:43:59 54° NNE 16:48:04 10° E
STARLINK-1202 3.9 16:40:07 10° SW 16:44:00 46° SE 16:47:54 10° ENE
STARLINK-1125 3.7 16:40:01 10° WNW 16:44:07 75° SSW 16:48:10 10° SE
ADEOS Rocket 3.3 16:37:19 10° NNE 16:44:15 84° WNW 16:50:24 10° SSW
USA 234 4.0 16:38:44 10° ENE 16:44:25 31° SE 16:50:04 10° S
SL-14 R/B 3.7 16:41:39 10° N 16:45:34 44° ENE 16:49:26 10° SSE
STARLINK-1209 2.7 16:43:21 10° WSW 16:46:17 88° SSE 16:49:13 10° ENE
SL-8 R/B 3.7 16:41:37 10° W 16:46:25 87° S 16:51:13 10° E
STARLINK-1228 2.6 16:45:32 10° WSW 16:48:25 90° NNE 16:51:18 10° ENE
STARLINK-1109 3.8 16:44:42 10° WNW 16:48:47 71° SSW 16:52:51 10° SE
STARLINK-1123 4.0 16:44:54 10° WNW 16:48:59 55° NNE 16:53:04 10° E
STARLINK-1246 3.8 16:46:56 10° SW 16:50:54 51° SE 16:54:54 10° ENE
ERBS 3.4 16:50:08 10° WSW 16:53:23 44° NNW 16:56:39 10° NE
STARLINK-1091 3.8 16:49:32 10° WNW 16:53:35 67° SSW 16:57:38 10° SE
Cosmos 1766 3.3 16:49:43 10° S 16:53:43 89° WSW 16:57:44 10° N
STARLINK-1097 4.0 16:49:52 10° WNW 16:53:58 57° NNE 16:57:58 11° E
H-2A R/B 2.1 16:49:44 10° SSE 16:54:59 65° ENE 17:00:07 10° N
SL-16 R/B 2.5 16:50:32 10° S 16:55:53 45° ESE 17:01:15 10° NE
Cosmos 2333 Rocket 4.1 16:53:05 10° WSW 16:58:11 33° NW 17:03:17 10° NNE
STARLINK-1224 3.7 16:54:14 10° SW 16:58:14 57° SSE 17:02:14 10° ENE
STARLINK-1099 3.9 16:54:52 10° WNW 16:58:58 59° NNE 17:02:46 12° E
Cosmos 1626 2.2 16:55:20 10° N 16:59:00 57° ENE 17:02:39 10° SSE
STARLINK-1066 4.2 16:56:23 10° WNW 16:59:19 34° SW 17:02:13 10° SSE
STARLINK-1081 4.2 16:56:53 10° WNW 16:59:45 33° SW 17:02:36 10° SSE
STARLINK-1201 2.9 16:56:31 10° WSW 16:59:47 83° SSE 17:03:04 10° ENE
STARLINK-1203 3.5 16:56:14 10° SW 17:00:10 62° SSE 17:04:07 10° ENE
STARLINK-1070 4.2 16:57:20 10° WNW 17:00:12 33° SW 17:03:03 10° SSE
STARLINK-1069 4.3 16:57:45 10° WNW 17:00:39 33° SW 17:03:31 10° SSE
STARLINK-1085 4.3 16:58:12 10° WNW 17:01:06 33° SW 17:03:58 10° SSE
STARLINK-67 3.0 16:59:00 10° W 17:01:32 54° NNW 17:04:05 10° ENE
STARLINK-1086 4.3 16:58:42 10° WNW 17:01:33 32° SW 17:04:23 10° SSE
STARLINK-1095 4.3 16:59:10 10° WNW 17:02:00 32° SW 17:04:50 10° SSE
SL-08 RB Rocket 4.1 16:57:48 10° SE 17:02:05 44° ENE 17:06:27 10° N
STARLINK-1077 4.3 16:59:36 10° WNW 17:02:27 32° SW 17:05:16 10° SSE
STARLINK-1225 3.6 16:58:53 10° SW 17:02:53 61° SSE 17:06:55 10° ENE
STARLINK-1075 4.3 17:00:04 10° WNW 17:02:53 32° SW 17:05:43 10° SSE
HJ-1C 4.3 16:59:54 10° S 17:03:11 52° W 17:06:30 10° NNW
STARLINK-1093 4.3 17:00:28 10° WNW 17:03:20 32° SW 17:06:11 10° SSE
STARLINK-1074 4.4 17:00:56 10° WNW 17:03:47 31° SW 17:06:38 10° SSE
STARLINK-1104 3.9 16:59:51 10° WNW 17:03:58 61° NNE 17:07:33 13° E
STARLINK-1072 4.0 17:00:05 10° WNW 17:04:03 57° SSW 17:07:51 11° SE
STARLINK-1087 4.4 17:01:25 10° WNW 17:04:14 31° SW 17:07:02 10° SSE
Resurs 01 Rocket 2.9 17:01:20 11° ESE 17:04:30 23° ENE 17:07:59 10° N
STARLINK-1088 4.4 17:01:53 10° WNW 17:04:41 31° SW 17:07:29 10° SSE
STARLINK-1115 4.4 17:02:17 10° WNW 17:05:08 31° SW 17:07:58 10° SSE
STARLINK-1076 4.4 17:02:45 10° WNW 17:05:35 30° SW 17:08:24 10° SSE
Cosmos 1709 Rocket 4.0 16:59:27 10° N 17:05:41 70° ENE 17:11:48 10° SSE
STARLINK-1092 4.4 17:03:12 10° W 17:06:02 30° SW 17:08:51 10° SSE
STARLINK-1080 4.4 17:03:42 10° W 17:06:29 30° SW 17:09:15 10° SSE
STARLINK-1090 4.4 17:04:09 10° W 17:06:56 29° SW 17:09:42 10° SSE
Cosmos 1302 Rocket 4.0 17:01:47 10° NNW 17:07:04 71° ENE 17:12:21 10° SSE
STARLINK-1089 4.5 17:04:35 10° W 17:07:22 29° SW 17:10:08 10° SSE
STARLINK-1230 3.6 17:03:35 10° SW 17:07:37 65° SSE 17:11:40 10° ENE
STARLINK-1107 4.5 17:05:04 10° W 17:07:50 29° SW 17:10:35 10° SSE
STARLINK-1096 4.1 17:04:29 10° WNW 17:08:25 53° SW 17:12:04 12° SE
STARLINK-1144 3.8 17:04:50 10° WNW 17:08:58 64° NNE 17:12:20 15° E
SeaSat 1 4.0 17:06:05 10° NNE 17:10:40 39° NW 17:15:13 10° WSW
CZ-4C R/B 4.3 17:06:43 10° WNW 17:11:27 26° NNW 17:16:56 10° NE
Cosmos 304 Rocket 4.4 17:06:46 10° NNW 17:11:29 57° WSW 17:16:09 10° S
STARLINK-1243 3.5 17:08:22 10° SW 17:12:25 69° SSE 17:16:29 10° ENE
STARLINK-1079 4.2 17:09:27 10° WNW 17:13:21 49° SW 17:16:50 13° SE
STARLINK-1233 3.0 17:10:30 10° WSW 17:13:38 78° NNW 17:16:42 11° ENE
STARLINK-1103 3.8 17:09:48 10° WNW 17:13:56 66° NNE 17:17:06 17° E
STARLINK-1212 3.0 17:10:58 10° WSW 17:14:05 78° NNW 17:17:07 11° ENE
Cosmos 1269 Rocket 4.0 17:08:57 10° SSW 17:14:13 76° ESE 17:19:32 10° NNE
STARLINK-1105 3.0 17:11:24 10° WSW 17:14:31 77° NNW 17:17:34 11° ENE
FREGAT/IRIS 2.4 17:12:07 10° S 17:14:50 81° W 17:17:35 10° NNW
STARLINK-1206 3.0 17:11:53 10° WSW 17:15:00 77° NNW 17:17:59 11° ENE
Cosmos 1953 3.4 17:12:00 10° SE 17:15:11 24° E 17:18:26 10° NE
STARLINK-1247 3.0 17:12:20 10° WSW 17:15:27 76° NNW 17:18:24 11° ENE
STARLINK-1227 3.0 17:12:45 10° WSW 17:15:53 76° NNW 17:18:52 11° ENE
STARLINK-1218 3.0 17:13:15 10° WSW 17:16:21 75° NNW 17:19:16 11° ENE
STARLINK-1226 3.0 17:13:41 10° WSW 17:16:48 75° NNW 17:19:43 12° ENE
STARLINK-1236 3.5 17:13:07 10° SW 17:17:11 74° SSE 17:21:16 10° ENE
Abrixas rocket 3.7 17:15:12 10° S 17:17:13 17° SSE 17:17:27 17° SE
STARLINK-1254 3.0 17:14:06 10° WSW 17:17:14 75° NNW 17:20:10 12° ENE
STARLINK-1215 3.0 17:14:36 10° WSW 17:17:43 74° NNW 17:20:35 12° ENE
STARLINK-1116 4.3 17:13:55 10° WNW 17:17:49 46° SW 17:21:08 13° SE
STARLINK-1231 3.0 17:15:01 10° WSW 17:18:08 73° NNW 17:21:00 12° ENE
STARLINK-1101 3.7 17:14:47 10° WNW 17:18:56 69° NNE 17:21:53 18° ESE
STARLINK-1232 3.0 17:15:56 10° WSW 17:19:03 73° NNW 17:21:52 12° ENE
STARLINK-1217 3.0 17:16:24 10° WSW 17:19:30 72° NNW 17:22:19 12° ENE
Cosmos 2297 3.9 17:14:06 10° NNW 17:19:47 76° WSW 17:25:27 10° SSE
STARLINK-1208 3.1 17:16:49 10° WSW 17:19:57 72° NNW 17:22:46 12° ENE
STARLINK-1229 3.0 17:17:18 10° WSW 17:20:24 71° NNW 17:23:10 13° ENE
STARLINK-1271 3.1 17:17:44 10° WSW 17:20:51 71° NNW 17:23:37 13° ENE
STARLINK-1270 3.1 17:18:13 10° WSW 17:21:19 70° NNW 17:24:03 13° ENE
STARLINK-1154 3.1 17:18:39 10° WSW 17:21:46 70° NNW 17:24:29 13° ENE
Cosmos 2251 Rocket 4.4 17:17:26 10° SSE 17:21:56 28° E 17:26:27 10° NE
STARLINK-1197 3.1 17:19:34 10° WSW 17:22:40 69° NNW 17:25:21 13° ENE
STARLINK-1189 3.1 17:20:01 10° WSW 17:23:07 69° NNW 17:25:47 13° ENE
MONITOR-E 4.2 17:20:58 10° S 17:23:35 63° WSW 17:26:13 10° NNW
STARLINK-1102 3.7 17:19:45 10° WNW 17:23:55 73° NNE 17:26:39 20° ESE
STARLINK-1187 3.2 17:20:52 10° WSW 17:23:59 63° NNW 17:26:40 13° ENE
STARLINK-1188 3.1 17:20:55 10° WSW 17:24:02 68° NNW 17:26:39 14° ENE
STARLINK-1198 3.1 17:20:56 10° WSW 17:24:03 68° NNW 17:26:40 14° ENE
STARLINK-1235 3.4 17:21:35 10° W 17:24:42 58° NNW 17:27:23 13° ENE
Cosmos 1455 Rocket 3.5 17:20:59 10° SSW 17:25:17 64° WNW 17:29:39 10° N
Cosmos 2237 Rocket 3.3 17:20:04 10° SW 17:25:31 49° NW 17:30:59 10° NNE
STARLINK-1199 3.2 17:22:51 10° WSW 17:25:59 67° NNW 17:28:34 14° ENE
STARLINK-1191 3.2 17:23:18 10° WSW 17:26:26 66° NNW 17:29:00 14° ENE
STARLINK-1210 3.2 17:23:46 10° WSW 17:26:54 66° NNW 17:29:26 14° ENE
STARLINK-1269 3.5 17:22:52 10° WSW 17:26:57 83° SSE 17:30:42 12° ENE
CZ-2C R/B 3.2 17:22:29 10° NNE 17:27:08 32° E 17:31:44 10° SSE
STARLINK-1221 3.2 17:24:13 10° WSW 17:27:20 65° NNW 17:29:52 15° ENE
Cosmos 2084 Rocket 3.8 17:23:11 10° NW 17:27:36 56° NE 17:30:25 21° ESE
STARLINK-1219 3.2 17:24:40 10° WSW 17:27:48 65° NNW 17:30:19 15° ENE
ISS -3.6 17:24:30 10° WNW 17:27:51 65° NNE 17:29:43 24° E
STARLINK-1222 3.2 17:25:07 10° WSW 17:28:15 65° NNW 17:30:45 15° ENE
STARLINK-1211 3.2 17:25:34 10° WSW 17:28:41 64° NNW 17:31:10 15° ENE
STARLINK-1111 3.6 17:24:45 10° WNW 17:28:54 76° NNE 17:31:27 23° ESE
STARLINK-1214 3.2 17:26:02 10° WSW 17:29:09 64° NNW 17:31:36 15° ENE
STARLINK-1245 3.2 17:26:31 10° WSW 17:29:36 63° NNW 17:32:00 16° ENE
STARLINK-1238 3.2 17:26:54 10° WSW 17:30:01 63° NNW 17:32:27 15° ENE
STARLINK-1205 3.2 17:27:49 10° WSW 17:30:55 62° NNW 17:33:17 16° ENE
STARLINK-1204 3.3 17:28:18 10° WSW 17:31:24 62° NNW 17:33:43 16° ENE
STARLINK-1200 3.5 17:27:40 10° WSW 17:31:45 87° SSE 17:35:19 13° ENE
Cosmos 1626 Rocket 3.5 17:27:44 10° N 17:32:11 89° WSW 17:36:33 10° S
STARLINK-1073 3.6 17:29:44 10° WNW 17:33:54 80° NNE 17:36:14 25° ESE
ARGOS 3.4 17:29:08 10° S 17:34:31 73° WSW 17:39:56 10° NNW
STARLINK-1192 3.5 17:32:24 10° WSW 17:36:30 88° NNW 17:39:53 15° ENE
Cosmos 292 Rocket 3.9 17:32:23 10° NNW 17:37:07 55° ENE 17:40:00 22° SE
IRIDIUM 104 4.3 17:33:00 10° N 17:38:12 60° E 17:43:11 11° SSE
STARLINK-1121 3.6 17:34:42 10° WNW 17:38:52 84° NNE 17:41:00 28° ESE
Cosmos 1602 Rocket 3.5 17:35:40 10° N 17:40:10 87° E 17:44:33 10° S
STARLINK-1244 3.6 17:37:19 10° WSW 17:41:24 84° NNW 17:44:37 16° ENE
MOS 1 Rocket 3.8 17:38:43 10° NNE 17:43:45 47° E 17:48:56 10° S
STARLINK-1106 3.5 17:39:39 10° WNW 17:43:50 88° NNE 17:45:46 31° ESE
MetOp-A 4.1 17:40:03 10° SSE 17:45:20 83° ENE 17:50:44 10° NNW
STARLINK-1138 3.6 17:41:58 10° WSW 17:46:03 81° NNW 17:49:05 18° ENE
IRIDIUM 114 4.2 17:42:08 10° N 17:47:23 72° E 17:52:20 11° S
CZ-2C R/B 3.8 17:42:33 10° S 17:47:27 51° W 17:52:12 10° NNW
STARLINK-1112 3.5 17:44:40 10° WNW 17:48:50 88° SSW 17:50:35 34° ESE
STARLINK-1143 3.7 17:46:52 10° WSW 17:50:57 77° NNW 17:53:47 19° ENE
STARLINK-1234 3.8 17:48:11 10° W 17:51:02 42° NNW 17:52:24 24° NE
USA 186 3.8 17:48:26 10° SSW 17:51:31 30° W 17:54:33 10° NNW
STARLINK-1128 3.5 17:49:39 10° WNW 17:53:48 83° SSW 17:55:22 37° ESE
SPOT 3 Rocket 3.7 17:49:18 10° S 17:54:30 77° WSW 17:59:46 10° NNW
Cosmos 1726 Rocket 4.5 17:56:39 29° E 17:56:39 29° E 18:00:16 10° NNE
IRIDIUM 103 4.3 17:51:18 10° N 17:56:34 86° E 18:01:29 12° S
Cosmos 1470 3.3 17:52:51 10° SSW 17:56:39 58° WNW 18:00:32 10° N
Cosmos 2369 Rocket 2.2 17:52:38 10° NNW 17:58:22 75° ENE 18:01:25 28° SE
STARLINK-1113 3.6 17:54:38 10° WNW 17:58:47 78° SSW 18:00:08 41° SE
Cosmos 1825 Rocket 3.7 17:54:53 10° N 17:59:15 55° ENE 18:00:44 36° SE
STARLINK-1241 3.7 17:55:23 10° WSW 17:59:26 70° NNW 18:01:52 23° ENE
Cosmos 1437 3.0 17:56:34 10° N 17:59:13 44° NE 17:59:13 44° NE
NOSS 3-3 (A) 4.2 17:56:01 10° S 18:01:28 43° ESE 18:07:34 10° NE
NOSS 3-3 (C) 4.2 17:56:07 10° S 18:01:34 42° ESE 18:07:39 10° NE
STARLINK-1119 3.6 17:59:36 10° WNW 18:03:45 74° SSW 18:04:55 45° SE
Cosmos 2263 4.2 17:58:38 10° NNW 18:04:14 62° ENE 18:06:37 34° SE
STARLINK-1239 3.8 18:00:16 10° WSW 18:04:18 67° NNW 18:06:32 25° ENE
SJ-6B 4.5 18:02:05 10° SSW 18:05:49 35° W 18:09:38 10° NNW
BREEZE-M DEB (TANK) 1.9 18:01:49 10° WSW 18:06:13 55° S 18:06:13 55° S
STARLINK-1114 3.7 18:04:38 10° WNW 18:08:46 69° SSW 18:09:45 48° SE
STARLINK-1240 3.9 18:05:00 10° WSW 18:09:01 65° NNW 18:11:04 27° NE
Cosmos 1758 Rocket 3.4 18:04:37 10° N 18:09:01 82° E 18:10:43 37° SSE
Cosmos 1726 2.0 18:08:31 52° SSE 18:09:12 66° E 18:12:55 10° NNE
Cosmos 1758 4.4 18:06:19 10° SSW 18:10:17 47° WNW 18:14:16 10° N
Cosmos 2184 Rocket 3.9 18:04:04 10° N 18:10:27 83° E 18:14:48 21° SSE
CZ-2C R/B 4.1 18:05:44 10° N 18:10:29 68° WNW 18:15:08 10° SSW
Cosmos 1908 4.4 18:13:53 28° NE 18:13:53 28° NE 18:16:12 10° NNE
Aureole 2 Rocket 2.4 18:09:41 10° NNW 18:13:13 75° WSW 18:13:43 60° S
STARLINK-1130 (DARKSAT) 3.7 18:09:36 10° WNW 18:13:43 65° SSW 18:14:31 51° SSE
STARLINK-1216 3.9 18:09:45 10° W 18:13:46 62° NNW 18:15:37 30° NE
SAR-Lupe-2 4.4 18:10:39 10° NNE 18:13:07 36° NE 18:13:07 36° NE
Terra 3.4 18:15:00 20° ENE 18:15:05 20° ENE 18:18:29 10° NNE
Cosmos 1953 Rocket 3.7 18:11:06 10° N 18:15:31 56° ENE 18:16:10 50° ESE
Spot 2 Rocket 3.6 18:15:30 41° SE 18:17:03 59° ENE 18:22:06 10° N
STARLINK-1237 4.0 18:14:32 10° W 18:18:34 60° NNW 18:20:12 33° NE
STARLINK-1084 3.7 18:14:34 10° WNW 18:18:40 61° SSW 18:19:17 53° S
Cosmos 1943 Rocket 2.5 18:14:32 10° NNW 18:20:00 62° WSW 18:23:01 26° S
SPOT 1/Viking Rocket 4.0 18:20:12 39° E 18:21:09 44° ENE 18:26:05 10° N
STARLINK-1209 4.1 18:18:42 10° WNW 18:21:26 34° N 18:21:29 34° N
Cosmos 1943 3.3 18:19:43 28° S 18:22:26 50° ESE 18:27:54 10° NE
Cosmos 1606 Rocket 3.5 18:22:04 55° SE 18:22:46 66° E 18:27:12 10° NNE
STARLINK-1202 4.0 18:19:17 10° W 18:23:19 58° NNW 18:24:45 35° NE
STARLINK-1228 4.2 18:20:54 10° WNW 18:23:29 34° NNW 18:23:29 34° NNW
STARLINK-1098 3.8 18:19:34 10° WNW 18:23:39 57° SSW 18:24:04 53° S
ATLAS 2AS CENTAUR R/B 3.2 18:16:11 10° NW 18:23:48 56° NE 18:26:55 34° E
Meteor 2-10 4.0 18:20:00 10° S 18:25:20 89° E 18:30:56 10° NNE
USA 234 3.2 18:21:23 10° NE 18:27:58 88° SE 18:34:32 10° WSW
STARLINK-1123 3.9 18:24:33 10° WNW 18:28:36 53° SW 18:28:51 52° SSW
SL-8 R/B 3.6 18:24:11 10° W 18:28:57 71° SSW 18:29:36 61° SE
STARLINK-1246 4.1 18:26:23 10° W 18:30:26 55° NNW 18:31:37 39° NE
Cosmos 2154 Rocket 3.9 18:25:08 10° N 18:31:32 78° E 18:34:10 38° SSE
STARLINK-1097 4.1 18:29:32 10° WNW 18:33:33 49° SW 18:33:37 49° SSW
H-2A R/B 4.5 18:31:00 10° SW 18:34:50 20° W 18:38:37 10° NW
STARLINK-1201 4.2 18:33:09 10° WNW 18:36:07 39° NNW 18:36:07 39° NNW
STARLINK-1224 4.2 18:33:40 10° W 18:37:39 53° NNW 18:38:30 43° NNE
STARLINK-1099 4.2 18:34:33 10° WNW 18:38:25 45° SW 18:38:25 45° SW
USA 245 4.0 18:37:36 56° SSE 18:38:44 81° ENE 18:44:38 10° NNW
STARLINK-1203 4.2 18:35:25 10° W 18:39:18 50° NNW 18:39:58 44° NNE
Cosmos 967 Rocket 4.4 18:33:18 10° SSW 18:39:42 69° ESE 18:46:10 10° NE
SL-16 R/B 3.7 18:34:56 10° WSW 18:40:08 36° NW 18:45:22 10° NNE
Resurs 01 Rocket 2.5 18:38:55 29° SSW 18:40:45 45° W 18:45:00 10° NNW
STARLINK-1225 4.2 18:38:19 10° W 18:42:18 51° NNW 18:42:58 46° NNE
STARLINK-1104 4.4 18:39:33 10° WNW 18:43:12 42° SW 18:43:12 42° SW
Cosmos 1328 3.9 18:40:52 10° NNW 18:44:50 70° W 18:44:50 70° W
Cosmos 921 Rocket 4.2 18:41:36 10° N 18:44:33 30° NE 18:44:33 30° NE
Cosmos 962 Rocket 4.4 18:39:45 10° N 18:45:56 64° ENE 18:47:03 54° SE
Cosmos 2228 3.0 18:45:53 71° SW 18:46:13 77° W 18:50:33 10° N
STARLINK-1230 4.3 18:43:06 10° W 18:47:04 50° N 18:47:31 47° NNE
Nadezhda 1 Rocket 4.0 18:45:15 25° S 18:49:16 87° W 18:55:42 10° N
Cosmos 1953 4.1 18:47:56 10° SW 18:51:28 30° WNW 18:55:02 10° N
SL-8 Rocket 4.2 18:45:45 10° N 18:51:51 50° ENE 18:52:22 48° E
STARLINK-1243 4.3 18:47:56 10° W 18:51:55 49° N 18:52:10 48° N
STARLINK-1236 4.4 18:52:45 10° W 18:56:43 48° N 18:56:45 48° N
Cosmos 2366 rocket 4.3 18:53:42 10° N 18:59:35 45° ENE 18:59:36 45° ENE
Cosmos 1603 3.8 18:55:59 10° SW 19:01:36 71° WNW 19:07:14 10° NNE
CZ-4C R/B 4.5 18:57:13 10° NW 19:02:12 23° N 19:07:51 10° ENE
Cosmos 2251 Rocket 4.4 18:58:47 10° SW 19:03:58 48° WNW 19:09:12 10° NNE
SPOT 5 3.3 19:05:12 48° NNE 19:05:12 48° NNE 19:08:32 10° N
Cosmos 2058 Rocket 3.6 19:05:23 56° N 19:05:23 56° N 19:08:59 10° N
ISS -1.3 19:01:27 10° W 19:02:41 19° W 19:02:41 19° W
CZ-2C R/B 3.8 19:02:41 10° N 19:07:30 39° WNW 19:12:16 10° SW
ERS-1 Rocket 2.9 19:08:38 79° NNE 19:08:38 79° NNE 19:13:27 10° NNW
Landsat 7 4.0 19:10:47 65° W 19:10:47 65° W 19:15:30 10° NNW
IGS 5A 4.2 19:12:34 51° NW 19:12:34 51° NW 19:15:58 10° NNW
Cosmos 1656 Rocket 4.0 19:14:46 10° NW 19:20:19 57° WSW 19:20:40 55° SW
Aureole 1 Rocket 4.2 19:19:24 41° SSW 19:22:30 85° ESE 19:29:02 10° NNE
COSMOS 2455 2.9 19:26:13 10° NNW 19:32:01 66° NE 19:32:01 66° NE
Cosmos 2341 Rocket 4.2 19:30:43 10° NNW 19:36:59 63° W 19:37:48 58° SW
In-Cosmos 22 Rocket 4.4 19:33:16 10° N 19:38:23 68° NNE 19:38:23 68° NNE
Cosmos 2369 Rocket 4.1 19:37:46 10° NW 19:41:45 20° W 19:43:14 18° WSW
NOSS 3-4 (A) 3.8 19:35:17 10° NW 19:42:14 73° SW 19:42:42 71° SSW
NOSS 3-4 (C) 3.7 19:35:23 10° NW 19:42:20 74° SW 19:42:48 71° SSW
Terra 2.9 19:53:53 41° NW 19:53:53 41° NW 19:57:08 10° NNW
ATLAS CENTAUR R/B 4.2 19:54:22 10° N 19:55:41 12° NNE 19:55:41 12° NNE
Cosmos 2218 Rocket 4.3 19:58:06 10° NNW 20:03:48 61° WNW 20:03:48 61° WNW
USA 234 4.0 20:04:28 10° ENE 20:10:43 49° NNW 20:16:58 10° W
ATLAS 2AS CENTAUR R/B 3.4 20:07:36 10° NW 20:14:22 46° WSW 20:14:22 46° WSW
Cosmos 1697 Rocket 4.0 20:24:30 10° NNW 20:28:28 35° NNE 20:28:28 35° NNE
Mayak 1.5 20:37:55 10° N 20:38:57 17° N 20:38:57 17° N
BREEZE M DEB (TANK) 4.3 20:49:47 81° E 20:49:47 81° E 21:10:15 10° E
CZ-4C R/B 3.7 20:46:07 10° NW 20:52:32 42° NE 20:53:35 40° NE
Cosmos 1980 Rocket 3.7 20:50:03 10° NNW 20:53:43 31° NNE 20:53:43 31° NNE
Cosmos 2082 Rocket 4.4 21:19:02 17° NE 21:19:02 17° NE 21:20:24 10° NE
ATLAS 5 CENTAUR R/B 4.2 21:38:36 19° NNE 21:38:36 19° NNE 21:40:22 10° NNE
Cosmos 1833 Rocket 4.4 21:46:51 28° NNE 21:46:51 28° NNE 21:49:28 10° NNE
USA 234 4.2 21:46:56 10° ENE 21:53:04 44° N 21:59:11 10° WNW
SL-16 R/B 3.8 22:07:39 32° ENE 22:07:42 32° ENE 22:13:07 10° N
Cosmos 2344 4.2 21:58:59 10° NW 22:08:31 85° SW 22:09:43 75° SSE
SL-16 R/B 3.6 22:11:48 10° NNW 22:15:22 34° N 22:15:22 34° N
Cosmos 2322 Rocket 3.6 22:26:05 10° NNW 22:29:38 35° N 22:29:38 35° N
Cosmos 2360 Rocket 3.7 22:27:03 10° NNW 22:31:55 31° NE 22:31:55 31° NE
Cosmos 1980 Rocket 4.3 22:34:02 10° NW 22:35:28 18° NW 22:35:28 18° NW
CZ-4C R/B 3.7 22:34:32 10° NW 22:38:44 40° NW 22:38:44 40° NW
Cosmos 2082 Rocket 3.4 23:00:52 36° NNW 23:00:52 36° NNW 23:04:43 10° NNE
USA 267 4.5 22:53:34 10° ENE 22:57:37 30° E 22:57:37 30° E
Cosmos 2233 Rocket 4.4 23:10:24 10° N 23:15:27 59° N 23:15:27 59° N
ATLAS 5 CENTAUR R/B 4.3 23:20:05 13° NW 23:22:09 16° N 23:25:27 10° NNE
Cosmos 2123 Rocket 4.5 23:25:02 52° NNW 23:25:02 52° NNW 23:29:51 10° N
H-2A R/B 4.3 23:25:14 21° ENE 23:25:14 21° ENE 23:28:21 10° NNE
Cosmos 1833 Rocket 4.5 23:28:31 22° NW 23:28:31 22° NW 23:32:50 10° N
ARIANE 5 R/B 4.4 23:26:26 10° NE 23:30:26 22° E 23:30:51 22° E
CZ-2D R/B 2.7 23:28:36 10° NNE 23:32:53 56° NNE 23:32:53 56° NNE
Resurs 1-4 Rocket 2.8 23:30:08 10° NNE 23:34:06 51° NNE 23:34:06 51° NNE
USA 234 3.4 23:29:06 10° ESE 23:35:35 69° NNE 23:42:05 10° NW
Cosmos 2219 Rocket 3.7 23:30:55 10° NNW 23:36:01 34° NE 23:41:04 10° ESE
ADEOS II 3.2 23:34:45 10° NNE 23:39:24 36° E 23:39:24 36° E
Cosmos 1607 4.4 23:48:47 50° NW 23:48:47 50° NW 23:54:48 10° NNE
SL-16 R/B 3.2 23:52:44 43° NW 23:52:44 43° NW 23:57:11 10° NNW
